Volver al catálogo

ONEWEB-0526

ActivoComunicacionesPO
NORAD 54144·PAYLOAD·🇬🇧 United Kingdom

Lanzado Oct 22, 2022 desde Satish Dhawan Space Centre

Loading…

Próximos Pases (próximas 24 horas)

TLE

ActualizadoSource: CelesTrak SupGP

Época: Sep 14, 2026, 07:15 UTC

1 54144C 22138AH  26257.30261991 -.00003004  00000+0 -75124-2 0  2573
2 54144  87.9113 287.2174 0001891  90.0144  20.7346 13.19726818    16

Sigue ONEWEB-0526 en tiempo real con AllMySat

Download on the App Store